Regional Weather Roundup
Issued by NWS

Home | Current Version | Previous Version | Graphics & Text | Print | Product List | Glossary On
Versions: 1 2 3 4 5 6 7 8 9 10 11 12 13 14 15 16 17 18 19 20 21 22 23 24 25 26 27 28 29 30 31 32 33 34 35 36 37 38 39 40 41 42 43 44 45 46 47 48 49 50
153
ASUS45 KCYS 280110
RWRWY

WYOMING REGIONAL WEATHER ROUNDUP
NATIONAL WEATHER SERVICE CHEYENNE WY
700 PM MDT SAT AUG 27 2016

NOTE:  "FAIR" INDICATES FEW OR NO CLOUDS BELOW 12,000 FEET
WITH NO SIGNIFICANT WEATHER AND/OR OBSTRUCTIONS TO VISIBILITY.

WYZ001-280200-
YELLOWSTONE NATIONAL PARK

CITY           SKY/WX    TMP DP  RH WIND       PRES   REMARKS
LK YELLOWSTONE   N/A     63  22  20 VRB6      30.20R
W YELLOWSTONE  NOT AVBL

$$
WYZ002>013-054>058-071-098>099-280200-
NORTHERN WYOMING

CITY           SKY/WX    TMP DP  RH WIND       PRES   REMARKS
JACKSON        SUNNY     73  19  13 SW14G23   30.10R
CODY           FAIR      77  30  18 S8        29.94R
GREYBULL       FAIR      82  33  17 E9        29.85F
WORLAND        FAIR      82  27  13 S6        29.88S
SHERIDAN       FAIR      80  36  20 SE3       29.88S
BUFFALO        FAIR      75  34  22 CALM      29.97R
GILLETTE       FAIR      80  36  20 N13       29.91R
HULETT         FAIR      77  46  33 E5        29.93S
NEWCASTLE      FAIR      79  37  22 E8        29.94S

$$
WYZ014>020-022>026-101>103-280200-
CENTRAL WYOMING

CITY           SKY/WX    TMP DP  RH WIND       PRES   REMARKS
BIG PINEY      FAIR      72  27  18 W12       30.15R
PINEDALE       FAIR      70  23  17 NW13      30.15R
DUBOIS         FAIR      70  19  14 NW13G20   30.11F
LANDER         FAIR      79  26  14 NW3       29.98S
RIVERTON       FAIR      76  32  20 E6        29.99F
CASPER         FAIR      73  31  21 W9        30.00R
DOUGLAS        FAIR      79  27  14 W9        29.99R

$$
WYZ021-027>030-104>119-280200-
SOUTHERN WYOMING

CITY           SKY/WX    TMP DP  RH WIND       PRES   REMARKS
EVANSTON       FAIR      72  20  14 W13       30.18S
FORT BRIDGER   FAIR      74  21  13 W16G22    30.19S
ROCK SPRINGS   FAIR      76  18  11 W14       30.12S
DIXON          FAIR      75  31  19 SW9       30.17S
RAWLINS        FAIR      74  19  12 SW12      30.13S
SARATOGA       FAIR      72  25  17 W12       30.18S
LARAMIE        FAIR      69  27  20 SW10      30.18R
CHEYENNE       FAIR      74  38  27 S10       30.11R
TORRINGTON     FAIR      78  49  35 SE14      29.96R
PINE BLUFFS    FAIR      75  37  25 S8        30.05S

$$




USA.gov is the U.S. government's official web portal to all federal, state and local government web resources and services.